Wind_Speed
23 23 23 22 22 21 20 21 21 21 20 21 22 22 22 23 23 24 25 25 26 26 26 27 27 27 27 27 30 33 36 37 37 35 34 33 31 30 28 26 24 27 32 34 34 36 37 34 33 33 31 30 29 25 21 19 17 17 19 21 22 23 26
23 23 23 23 22 20 20 20 20 20 21 21 21 21 21 22 23 24 26 27 28 28 28 28 28 28 27 26 28 31 34 37 38 38 38 37 35 35 34 31 28 28 31 33 33 35 39 37 34 35 34 32 32 32 29 26 23 20 19 20 21 23 25
24 23 23 23 21 20 20 20 20 20 20 21 21 21 21 21 21 23 24 25 27 27 27 28 29 30 29 28 29 30 31 34 37 39 41 40 38 36 36 35 33 31 32 33 33 34 39 40 38 37 36 34 35 36 35 33 30 27 25 24 23 24 26
24 23 23 23 21 20 20 20 19 19 20 20 20 20 20 20 21 22 23 24 25 26 26 27 28 29 29 29 30 30 30 32 35 37 41 43 42 39 37 35 33 33 33 34 33 33 36 40 41 41 38 36 37 39 39 39 37 35 33 31 29 29 29
24 23 23 23 21 20 20 20 19 19 19 19 18 19 19 19 20 21 22 23 23 24 24 25 26 26 26 27 28 29 29 30 32 33 37 41 43 43 41 37 34 33 33 33 34 34 34 37 40 42 43 40 39 42 43 43 43 41 39 37 36 35 34
23 23 23 22 21 21 21 20 19 19 18 17 17 18 19 19 19 19 20 21 22 22 22 23 24 24 24 25 26 27 27 29 31 32 33 35 39 42 43 42 40 38 35 34 35 35 33 34 37 40 43 42 40 41 44 45 46 46 43 40 39 38 37
23 23 23 22 21 21 21 20 20 18 17 17 17 18 19 18 18 18 18 18 19 19 20 20 21 21 22 23 25 25 25 27 29 32 33 33 35 38 40 42 43 41 39 39 39 38 34 32 33 34 36 37 35 35 40 42 43 45 44 40 38 38 37
23 23 22 21 21 21 20 20 19 18 17 17 17 18 18 17 16 16 17 16 16 17 18 18 18 19 19 19 20 22 22 24 26 30 34 35 34 35 36 39 41 42 41 40 40 41 38 32 30 29 29 30 30 30 34 36 35 38 39 36 35 35 35
22 22 22 21 21 20 20 20 19 17 17 18 17 16 16 16 15 16 17 18 18 19 18 18 19 19 18 18 18 18 19 20 22 25 30 33 35 36 36 36 38 39 41 41 40 41 39 33 30 29 27 28 29 30 33 34 33 34 35 34 33 34 35
21 21 21 21 21 20 19 19 18 17 17 16 15 14 15 16 16 17 18 19 21 22 21 20 19 19 19 20 21 20 20 20 21 23 25 27 30 35 37 37 36 35 35 36 37 37 36 33 32 30 28 29 30 30 32 33 32 34 36 35 36 37 36
21 20 19 20 20 19 19 18 17 15 15 12 11 13 17 20 21 21 23 23 24 24 24 22 20 20 20 22 23 23 24 23 23 23 24 26 28 31 34 37 38 37 33 31 30 29 30 32 34 33 31 31 29 28 28 29 27 28 31 34 35 37 35
20 18 18 18 19 18 17 16 14 13 12 10 9 11 16 21 23 25 27 27 27 26 26 25 23 20 20 21 21 22 24 25 25 25 25 27 28 30 32 34 37 39 38 36 33 30 30 31 34 35 34 33 30 25 23 24 25 26 30 32 32 33 33
18 17 16 17 18 17 15 13 11 9 9 9 9 10 14 19 23 26 27 28 28 28 27 26 24 22 21 21 21 21 22 23 25 26 26 26 28 31 33 34 35 37 38 38 38 37 36 35 34 36 36 34 32 27 22 21 23 25 27 28 29 30 29
17 16 14 15 16 16 13 11 8 8 8 8 8 9 13 18 22 25 27 28 28 29 29 27 25 24 22 21 21 22 22 22 23 25 26 27 27 29 32 33 35 37 39 39 39 40 41 39 37 37 38 36 33 31 27 24 23 23 24 25 26 27 26
16 15 13 13 14 14 12 9 8 7 6 6 5 8 15 20 21 22 27 29 29 29 28 26 25 24 22 22 23 23 22 23 23 24 26 27 27 27 29 32 34 35 39 43 43 42 42 41 40 39 39 38 36 33 30 26 24 24 25 25 25 26 26
16 15 13 12 12 13 13 10 8 6 4 2 4 12 18 19 17 15 19 25 28 27 25 23 22 22 21 21 22 21 20 20 22 24 26 27 26 25 26 29 31 32 36 42 46 47 44 42 41 40 39 38 37 33 29 26 24 23 24 26 26 26 25
15 14 13 11 10 11 13 11 8 5 3 1 6 16 17 14 13 11 8 11 16 19 21 22 22 22 21 21 20 19 19 19 21 24 25 26 26 25 26 27 26 28 31 36 43 48 48 45 43 41 38 37 36 31 27 26 27 26 24 26 27 25 22
14 13 11 10 9 9 11 11 9 6 4 2 8 15 14 11 12 11 7 6 6 9 11 14 17 19 21 22 21 19 18 18 21 25 27 27 26 26 27 27 25 25 27 30 35 42 47 48 45 40 38 38 35 30 27 30 32 30 27 26 26 24 22
14 12 10 9 9 8 8 11 11 8 5 4 8 14 14 9 9 11 10 8 8 9 10 10 11 14 18 21 21 20 18 16 19 25 28 27 27 27 27 25 23 24 24 25 28 33 40 47 47 42 40 39 35 31 30 30 30 30 29 28 25 23 22
12 12 9 8 9 9 7 10 12 10 8 8 8 12 13 10 8 9 13 14 14 15 15 13 11 11 13 17 19 21 20 19 20 24 28 29 29 27 23 20 19 20 20 21 23 24 29 38 42 40 39 37 34 33 31 28 27 28 29 29 26 24 24
10 10 8 7 8 10 9 9 10 11 12 12 12 12 13 11 9 8 12 17 18 17 16 15 13 11 11 13 16 17 19 20 21 22 26 29 30 26 21 18 17 17 17 20 23 23 24 28 33 35 36 36 35 34 32 29 27 28 28 28 27 26 26
8 8 6 5 7 9 9 8 9 13 14 14 14 15 13 11 10 9 11 16 18 16 15 15 15 14 12 12 14 14 16 19 21 20 22 26 27 26 25 22 17 14 15 18 22 25 28 29 31 33 35 35 35 33 32 30 29 28 28 28 28 27 27
8 7 6 5 6 7 8 8 10 13 14 14 15 15 14 12 12 12 12 14 16 16 15 15 16 15 14 14 14 15 15 17 19 19 18 19 19 21 25 26 21 17 18 20 20 24 28 31 32 33 33 34 33 32 32 32 30 30 30 29 29 29 29
7 6 5 6 8 7 6 8 11 14 15 15 15 15 15 14 14 14 13 13 14 15 15 16 17 16 16 16 17 17 16 16 16 16 15 15 15 15 19 25 26 22 23 25 24 24 26 30 33 33 31 31 30 29 29 30 30 30 29 29 29 30 31
6 5 5 8 10 9 8 10 13 15 16 16 15 14 14 15 15 15 14 14 14 14 14 15 17 16 15 15 16 17 18 18 17 16 16 17 17 15 15 21 26 25 24 27 27 26 27 29 31 31 29 28 27 27 27 27 28 28 27 27 28 30 32
4 3 6 10 10 10 12 14 15 17 17 17 15 13 13 14 15 15 14 14 14 13 12 13 15 15 14 13 14 16 17 18 18 19 19 19 19 17 14 17 24 26 24 25 26 27 27 28 29 28 28 27 27 26 24 23 24 24 24 25 27 29 32
2 4 8 11 10 11 15 17 17 18 17 16 15 15 15 15 14 12 11 11 11 11 12 13 13 14 13 13 14 15 15 17 17 18 18 18 18 16 13 14 21 27 26 24 24 25 25 25 26 27 28 27 26 24 23 22 23 23 24 25 25 25 27
2 8 10 10 10 13 18 21 20 17 16 16 16 17 18 18 14 10 9 9 9 10 13 14 13 13 14 16 17 17 17 17 17 16 16 16 17 17 15 13 17 25 27 26 24 23 23 23 24 24 24 23 23 23 23 23 24 25 25 24 22 22 23
6 10 9 10 13 18 21 23 22 18 16 16 15 16 18 17 12 11 11 10 10 11 14 14 13 13 15 17 17 17 16 16 15 14 14 14 15 16 15 13 14 18 23 25 25 25 25 25 24 23 23 23 23 23 24 23 23 23 23 23 22 23 23
8 9 11 14 18 21 22 23 22 19 17 16 14 15 17 12 8 9 11 12 12 14 14 13 12 12 14 14 12 11 11 12 12 12 12 13 13 14 14 13 13 14 17 21 23 25 26 27 27 27 26 25 23 22 21 22 21 20 20 22 23 24 25
12 16 17 18 21 23 22 21 19 17 16 14 13 17 17 9 6 11 14 14 14 14 13 12 11 11 11 10 8 7 7 7 8 9 10 11 12 12 13 12 12 13 14 16 18 20 22 24 26 27 28 27 25 21 19 19 20 20 20 22 24 25 26
17 21 21 21 22 21 18 16 15 14 14 14 16 19 15 7 8 14 14 12 12 12 11 11 11 10 10 8 7 6 5 5 5 5 6 7 8 9 10 11 11 12 13 14 15 17 18 20 22 25 27 28 29 28 25 24 23 24 24 24 26 27 28
19 19 18 18 17 15 14 14 14 14 15 16 17 17 13 8 11 14 12 10 11 11 11 12 11 10 9 8 6 5 5 5 5 5 6 7 8 8 9 10 11 11 12 13 14 15 16 18 19 21 24 26 28 30 31 30 29 28 27 26 27 29 31
15 15 14 13 12 12 13 14 14 14 15 16 16 14 11 9 10 11 11 10 9 10 12 12 10 9 8 7 6 5 4 4 5 5 6 7 8 10 11 11 12 13 13 14 15 15 15 16 17 18 21 24 26 28 29 30 31 30 27 26 27 29 30
10 10 10 9 9 10 12 12 13 13 14 14 14 12 10 8 8 9 10 10 10 11 12 12 11 9 8 7 6 5 4 4 4 5 6 6 7 8 10 12 13 15 15 16 16 17 17 17 17 18 18 20 23 25 26 28 29 30 29 28 28 29 29
6 7 8 8 8 9 11 11 12 12 12 12 11 10 8 7 7 8 9 10 10 11 11 11 11 9 8 8 7 5 4 4 5 6 7 8 8 8 9 10 11 12 14 15 16 17 18 18 18 18 18 19 20 22 24 26 27 29 31 31 30 29 30
Wind_Direction
289 291 293 294 295 296 297 298 297 296 293 291 288 284 280 276 272 270 269 269 268 266 266 267 267 268 266 263 259 255 252 250 249 250 250 250 251 251 251 254 257 262 266 265 261 260 258 254 252 250 246 246 245 239 236 237 235 230 228 230 233 237 242
286 288 289 291 293 295 297 297 297 296 294 292 291 288 284 278 273 270 268 267 267 266 266 265 266 267 267 265 261 257 253 251 249 249 249 250 252 253 252 253 256 260 264 267 266 262 260 258 258 255 247 245 247 246 244 244 240 236 233 231 233 236 239
285 286 286 288 291 293 296 296 296 295 294 293 293 292 289 285 279 274 271 269 268 268 267 267 266 266 265 265 264 260 255 251 249 248 248 249 251 254 255 254 256 259 262 266 267 265 263 261 261 260 253 249 251 251 251 251 246 242 241 240 241 243 243
283 284 283 285 289 292 293 294 292 291 293 295 295 295 294 290 285 280 276 272 269 268 267 266 267 266 265 265 265 263 258 253 250 249 248 248 249 251 254 255 256 258 260 264 265 265 265 264 263 262 257 254 256 256 256 257 255 251 248 246 246 248 248
281 281 281 282 287 291 292 292 290 289 291 294 296 297 296 294 291 287 284 280 277 273 269 267 266 266 266 265 265 264 262 257 252 249 249 249 248 248 251 253 254 254 257 259 262 264 265 266 266 265 262 260 261 261 261 262 262 259 256 252 250 251 251
279 279 280 281 284 287 289 289 286 285 288 292 295 299 300 299 295 291 288 286 285 282 278 273 270 268 267 265 265 264 263 260 254 249 247 248 248 247 248 250 251 252 253 255 259 263 265 267 268 267 264 263 264 265 265 266 265 263 260 255 253 252 252
278 277 278 280 282 284 285 285 282 282 285 291 296 298 299 299 297 294 292 290 289 288 285 282 278 275 270 267 265 264 262 261 257 251 246 245 247 248 247 248 250 251 253 255 257 260 263 266 267 265 263 262 262 265 265 265 266 264 260 255 253 253 253
276 277 278 280 281 281 281 281 280 279 284 290 295 295 294 293 292 294 296 298 297 294 291 290 287 283 278 273 270 268 265 262 259 254 249 246 246 248 249 249 249 250 252 254 257 258 260 262 263 262 262 262 262 263 262 260 260 262 260 257 256 256 256
273 275 279 281 280 279 279 281 280 278 282 288 291 290 289 289 289 292 297 301 302 300 297 294 292 290 287 283 279 274 269 265 261 258 254 250 247 246 247 249 250 251 252 253 255 257 257 257 257 257 260 262 262 261 259 256 254 253 254 255 256 255 254
270 273 277 279 278 278 278 280 280 279 280 286 291 293 294 294 294 296 298 300 301 300 298 296 295 295 294 291 286 279 273 268 264 261 260 257 253 249 247 246 246 248 250 251 253 255 254 251 250 251 253 256 259 262 261 258 254 251 250 251 254 255 254
269 271 273 275 276 277 277 277 277 277 278 283 290 291 289 288 290 293 295 298 298 296 295 295 294 295 297 295 292 288 283 276 270 266 262 258 255 252 250 247 244 242 241 241 245 249 248 245 246 247 248 251 257 262 259 253 252 253 253 253 255 257 256
267 268 269 271 273 275 275 273 271 272 274 276 279 280 282 283 284 287 288 291 293 292 291 291 290 291 292 291 291 292 290 285 278 272 265 259 253 248 247 247 245 242 238 236 238 242 242 242 243 245 247 249 255 262 260 253 251 253 256 257 256 257 256
265 264 265 266 270 273 270 266 264 263 264 268 272 277 285 287 286 286 285 285 286 287 287 286 286 287 286 286 287 287 287 287 285 280 271 263 254 248 245 243 243 241 239 238 240 243 243 241 243 246 247 249 254 261 263 260 256 255 257 259 257 254 252
263 262 260 261 266 267 260 255 255 251 255 266 270 275 285 291 290 285 281 279 278 278 279 281 281 282 283 284 285 285 284 284 286 286 280 271 261 253 248 244 241 239 237 238 242 245 246 244 244 248 249 249 254 259 260 261 262 260 261 263 261 256 253
263 259 256 257 261 257 248 245 246 247 258 268 278 300 305 306 305 290 274 270 271 273 276 278 279 280 282 282 280 282 285 284 283 285 285 281 275 267 258 251 247 242 237 235 236 241 246 246 245 248 249 247 250 256 258 263 266 265 265 267 265 260 257
262 258 255 252 251 248 243 238 235 244 264 263 330 333 320 316 325 313 278 269 269 271 275 280 282 283 284 284 281 280 283 285 285 284 284 284 283 278 269 260 255 251 244 237 234 234 237 241 242 243 243 243 248 256 262 268 271 268 268 269 267 263 257
259 256 256 248 239 242 243 237 231 242 252 251 348 336 320 316 340 348 322 294 281 274 276 281 283 284 282 281 284 284 282 281 281 282 282 285 285 281 275 268 260 255 250 244 239 235 233 235 236 235 237 242 250 257 262 266 267 266 267 267 264 261 255
258 254 254 244 234 238 244 243 239 240 239 260 341 334 316 315 341 345 341 347 325 294 288 287 286 284 280 278 281 286 283 274 270 274 277 282 286 282 276 272 266 259 253 248 244 239 235 235 235 234 237 243 248 252 254 257 261 262 264 261 254 252 251
261 254 247 238 234 235 246 252 248 244 248 267 323 330 316 308 335 335 317 308 300 289 285 284 285 284 279 277 279 283 285 274 266 269 273 277 281 278 276 275 271 266 260 251 244 240 235 233 234 236 239 243 246 249 249 251 255 256 256 253 247 244 247
265 259 247 235 235 236 244 257 255 258 272 271 288 317 315 301 311 328 320 306 293 285 279 275 278 280 277 278 277 277 279 274 265 265 268 270 272 272 277 283 276 267 261 251 242 237 233 232 232 235 237 241 246 250 249 248 249 249 249 249 247 245 244
264 261 254 244 244 242 242 257 267 275 284 278 273 287 300 298 294 308 317 308 298 293 289 281 273 271 273 276 276 272 269 265 260 262 265 264 264 267 275 280 273 264 257 247 237 231 228 227 228 230 234 239 244 247 247 246 245 244 243 243 242 243 244
255 254 255 257 259 251 245 258 279 284 287 285 278 277 283 290 289 294 305 302 296 299 303 293 277 268 268 271 273 270 264 258 257 261 265 264 263 266 268 267 262 257 252 245 239 234 231 230 230 231 235 240 242 243 244 244 243 242 241 239 239 243 247
246 247 255 273 278 261 248 261 281 287 291 292 284 278 278 280 282 285 289 291 292 296 302 300 289 277 269 269 271 270 264 260 261 263 266 266 268 270 267 261 257 254 250 247 245 243 240 237 235 235 237 239 240 241 242 241 240 240 240 240 243 247 251
235 243 269 298 298 280 265 276 288 294 299 299 288 277 274 274 275 278 280 281 285 290 294 298 297 288 278 275 274 271 268 270 273 272 271 273 277 279 268 256 251 249 248 247 246 248 246 240 236 236 238 239 239 240 240 239 239 239 241 245 248 251 253
222 247 293 311 307 296 289 290 294 300 306 306 297 285 279 276 272 273 275 276 278 284 291 296 295 291 287 282 277 272 269 270 274 277 276 277 279 279 266 250 245 243 242 241 242 246 247 240 235 235 238 239 241 242 241 240 239 240 242 246 249 250 251
209 271 310 313 308 302 296 293 296 304 309 308 303 299 295 288 279 273 273 273 272 277 287 292 288 285 283 281 278 277 275 273 273 273 272 273 274 274 265 248 241 239 239 239 240 242 242 236 231 234 239 243 246 247 244 241 240 241 244 247 248 250 250
218 322 321 315 308 297 291 292 297 304 309 310 313 319 319 310 299 287 276 270 271 278 285 289 288 286 285 283 282 280 278 278 276 272 269 267 263 262 260 247 236 234 237 241 243 242 239 234 233 238 244 249 253 254 250 246 245 246 248 247 247 249 250
326 341 328 310 296 288 287 289 295 305 313 314 320 328 323 314 314 317 304 287 282 289 295 297 294 288 284 282 279 274 270 272 273 271 268 265 257 252 254 250 234 227 230 236 240 241 240 241 243 247 252 255 258 256 252 251 250 249 247 244 242 243 246
332 336 315 285 280 282 284 288 297 308 314 313 319 322 312 307 322 336 321 300 286 289 296 297 292 285 283 282 279 272 264 262 264 261 260 261 260 257 256 254 241 228 226 231 235 238 240 243 246 249 253 257 259 257 252 248 245 244 243 242 241 244 246
303 292 273 268 272 274 278 287 297 304 305 307 313 306 296 301 330 323 292 276 280 289 294 293 289 288 289 287 281 272 264 259 258 256 255 258 262 261 258 255 248 238 230 229 231 234 237 240 242 245 246 247 251 256 255 247 241 239 242 245 246 247 249
259 248 248 259 267 272 278 285 291 293 298 302 300 294 295 307 312 283 268 265 277 288 290 291 290 286 285 285 279 271 267 265 262 260 259 259 261 262 262 260 255 249 242 238 235 235 236 237 238 239 239 238 240 247 252 249 246 246 250 254 253 249 247
246 246 250 259 267 274 281 286 286 285 288 290 288 292 302 306 272 272 275 276 280 281 278 281 283 277 270 270 268 260 253 255 262 264 263 262 262 261 262 262 260 257 253 249 247 246 244 244 242 241 240 240 242 246 250 250 251 253 255 258 257 251 246
245 254 260 265 268 269 270 275 280 281 281 284 289 298 306 291 269 276 283 279 272 268 267 272 275 268 258 252 249 250 252 259 268 272 272 271 269 266 264 262 260 259 256 253 252 252 250 250 249 247 245 243 243 245 248 249 251 253 255 256 254 249 246
246 256 263 268 269 264 263 269 275 276 280 287 295 301 301 284 273 277 279 272 263 257 260 264 263 256 250 247 248 251 254 263 275 281 283 282 278 274 271 267 263 261 259 257 258 257 257 257 255 253 251 248 246 244 245 246 248 249 249 248 247 247 246
239 249 258 266 269 268 270 275 278 280 286 292 298 303 302 290 280 277 274 271 265 255 252 251 248 245 247 249 247 246 251 271 296 304 304 302 296 286 278 271 266 264 262 261 261 260 260 260 259 258 256 253 251 248 245 243 243 243 242 241 241 244 245
257 261 268 273 272 271 274 277 277 280 286 294 301 309 311 298 281 270 265 262 257 250 244 241 240 243 245 240 235 239 262 285 303 315 321 324 321 313 302 288 276 270 266 265 263 261 259 257 255 256 257 257 255 252 248 244 241 239 238 238 239 240 242
Height
1437 1436 1434 1433 1432 1431 1430 1428 1427 1426 1425 1424 1422 1422 1421 1421 1421 1421 1421 1421 1421 1421 1422 1422 1422 1422 1423 1424 1424 1425 1426 1427 1429 1430 1431 1432 1433 1434 1435 1436 1437 1435 1432 1433 1436 1436 1436 1439 1440 1440 1442 1444 1444 1445 1446 1446 1447 1448 1449 1450 1451 1452 1453
1434 1433 1431 1430 1429 1428 1427 1425 1424 1423 1422 1421 1419 1418 1418 1418 1418 1417 1417 1417 1417 1417 1418 1418 1418 1418 1419 1420 1420 1420 1421 1422 1424 1425 1426 1427 1428 1429 1431 1432 1433 1433 1430 1429 1432 1433 1433 1435 1436 1436 1438 1440 1441 1442 1443 1443 1444 1445 1446 1447 1448 1448 1449
1430 1429 1428 1427 1426 1425 1424 1422 1421 1420 1419 1418 1416 1415 1415 1414 1414 1413 1413 1413 1413 1413 1414 1414 1414 1414 1415 1416 1416 1416 1417 1418 1419 1420 1421 1422 1424 1425 1426 1428 1429 1429 1428 1427 1428 1430 1430 1430 1432 1433 1433 1436 1437 1438 1439 1439 1440 1442 1442 1443 1444 1445 1446
1427 1426 1424 1423 1423 1422 1421 1419 1418 1417 1416 1415 1414 1412 1411 1411 1410 1410 1409 1409 1409 1409 1410 1410 1410 1410 1411 1411 1411 1411 1412 1413 1414 1415 1416 1417 1419 1420 1421 1423 1425 1426 1425 1425 1425 1426 1427 1427 1428 1429 1430 1431 1432 1433 1434 1435 1436 1437 1438 1439 1441 1442 1442
1423 1422 1421 1420 1419 1419 1418 1416 1415 1414 1413 1412 1411 1410 1409 1408 1407 1406 1406 1405 1405 1405 1406 1405 1405 1406 1406 1407 1407 1407 1408 1409 1410 1411 1412 1413 1414 1416 1417 1419 1421 1421 1422 1422 1421 1422 1424 1424 1425 1425 1426 1428 1429 1429 1430 1431 1432 1433 1434 1435 1436 1437 1439
1419 1418 1417 1417 1416 1415 1414 1413 1412 1411 1410 1409 1408 1407 1406 1405 1404 1403 1402 1402 1402 1401 1402 1401 1401 1401 1402 1403 1402 1403 1403 1404 1405 1406 1407 1408 1409 1411 1413 1414 1415 1417 1418 1418 1418 1418 1419 1420 1421 1422 1423 1425 1427 1426 1425 1426 1427 1428 1430 1431 1432 1433 1435
1415 1414 1414 1413 1412 1412 1411 1410 1409 1408 1407 1407 1405 1404 1403 1402 1401 1401 1400 1399 1399 1398 1398 1398 1398 1398 1398 1398 1398 1398 1399 1400 1401 1401 1402 1403 1405 1406 1408 1409 1410 1412 1413 1413 1414 1415 1416 1417 1418 1419 1419 1421 1423 1423 1422 1423 1423 1423 1425 1427 1428 1429 1431
1411 1410 1410 1410 1409 1408 1407 1406 1406 1405 1405 1404 1403 1402 1401 1400 1399 1398 1397 1396 1396 1396 1395 1395 1394 1394 1394 1395 1395 1395 1396 1396 1397 1397 1398 1399 1401 1402 1403 1404 1405 1407 1408 1409 1409 1410 1412 1414 1415 1416 1416 1417 1419 1419 1418 1420 1420 1420 1420 1423 1424 1425 1426
1407 1407 1406 1406 1405 1404 1404 1403 1402 1402 1402 1401 1400 1399 1398 1397 1396 1395 1395 1394 1393 1393 1392 1392 1391 1391 1391 1392 1392 1392 1392 1392 1393 1393 1393 1394 1396 1398 1399 1400 1401 1402 1403 1404 1405 1405 1408 1410 1411 1411 1412 1413 1414 1415 1415 1416 1418 1417 1417 1419 1420 1420 1422
1404 1403 1403 1402 1401 1401 1400 1399 1399 1399 1399 1398 1397 1396 1395 1394 1393 1393 1392 1391 1391 1390 1389 1389 1389 1388 1388 1388 1388 1389 1389 1389 1390 1390 1390 1390 1392 1393 1394 1395 1396 1398 1399 1400 1401 1401 1404 1406 1406 1406 1408 1409 1411 1412 1412 1413 1414 1414 1415 1416 1416 1415 1416
1400 1400 1399 1398 1398 1397 1397 1396 1396 1396 1396 1395 1394 1394 1393 1392 1391 1390 1389 1388 1387 1387 1386 1386 1386 1385 1385 1385 1385 1385 1385 1386 1386 1386 1387 1387 1388 1388 1389 1390 1391 1393 1395 1396 1397 1398 1400 1401 1401 1402 1404 1406 1408 1409 1409 1409 1410 1411 1411 1412 1413 1411 1412
1396 1396 1396 1395 1394 1394 1394 1393 1394 1393 1393 1392 1392 1391 1391 1390 1389 1388 1386 1385 1384 1383 1383 1382 1382 1382 1382 1382 1382 1382 1381 1381 1382 1383 1383 1384 1385 1385 1386 1386 1387 1388 1390 1392 1393 1394 1395 1396 1397 1398 1400 1402 1404 1405 1406 1406 1407 1408 1408 1408 1409 1408 1408
1393 1392 1392 1392 1391 1390 1390 1391 1391 1391 1390 1389 1389 1389 1388 1387 1386 1385 1383 1382 1381 1380 1379 1379 1379 1379 1378 1378 1378 1378 1378 1378 1378 1378 1379 1380 1381 1382 1382 1383 1383 1384 1386 1388 1389 1389 1389 1391 1394 1395 1395 1398 1400 1401 1402 1403 1404 1404 1405 1405 1405 1405 1405
1389 1389 1389 1388 1388 1387 1387 1388 1388 1388 1387 1386 1386 1386 1385 1385 1383 1382 1380 1378 1377 1376 1376 1375 1375 1375 1375 1374 1375 1374 1374 1374 1374 1374 1374 1375 1376 1377 1377 1378 1379 1380 1382 1384 1385 1385 1385 1387 1390 1391 1391 1394 1397 1398 1398 1399 1400 1401 1401 1401 1401 1401 1402
1386 1385 1385 1385 1384 1384 1384 1385 1385 1385 1384 1383 1383 1383 1382 1381 1379 1377 1375 1374 1373 1373 1372 1372 1372 1372 1371 1371 1371 1371 1371 1371 1371 1371 1370 1371 1371 1371 1372 1373 1373 1374 1376 1378 1379 1380 1381 1383 1386 1387 1388 1390 1392 1393 1394 1395 1396 1397 1397 1397 1397 1397 1398
1383 1382 1382 1382 1381 1381 1381 1382 1382 1382 1381 1380 1380 1380 1379 1378 1375 1372 1370 1369 1369 1369 1369 1369 1369 1369 1368 1368 1368 1367 1368 1368 1367 1367 1367 1367 1366 1367 1367 1367 1368 1369 1370 1371 1373 1374 1377 1379 1381 1383 1385 1386 1387 1389 1391 1392 1392 1392 1393 1394 1394 1394 1394
1379 1379 1379 1379 1379 1378 1378 1379 1379 1378 1378 1377 1377 1377 1376 1374 1372 1369 1367 1366 1366 1366 1366 1366 1366 1366 1365 1365 1365 1364 1365 1365 1365 1364 1363 1363 1363 1363 1363 1362 1363 1364 1365 1366 1368 1370 1372 1375 1376 1379 1381 1382 1384 1386 1388 1389 1388 1389 1390 1390 1390 1390 1390
1376 1376 1376 1376 1376 1376 1375 1375 1376 1375 1375 1374 1375 1375 1373 1371 1369 1367 1366 1364 1364 1364 1364 1363 1363 1363 1362 1362 1362 1361 1361 1362 1362 1361 1360 1360 1360 1359 1358 1357 1358 1359 1360 1361 1363 1365 1367 1370 1372 1375 1376 1378 1380 1382 1384 1385 1385 1385 1386 1387 1386 1387 1388
1373 1373 1373 1373 1373 1373 1373 1372 1372 1372 1372 1372 1372 1372 1370 1369 1367 1366 1364 1363 1362 1361 1361 1361 1360 1360 1359 1359 1358 1358 1358 1358 1358 1358 1357 1356 1356 1355 1353 1353 1354 1355 1356 1357 1358 1359 1361 1364 1367 1370 1372 1373 1375 1378 1379 1380 1381 1382 1383 1383 1383 1384 1385
1370 1370 1371 1371 1371 1370 1370 1370 1369 1369 1369 1369 1369 1369 1368 1366 1365 1364 1362 1361 1360 1359 1358 1358 1357 1357 1356 1356 1355 1355 1355 1355 1355 1354 1354 1353 1353 1351 1350 1351 1352 1352 1353 1354 1354 1355 1357 1360 1363 1367 1368 1370 1371 1373 1374 1376 1377 1378 1379 1379 1380 1381 1382
1368 1368 1368 1368 1368 1368 1368 1368 1367 1367 1367 1367 1366 1366 1365 1364 1362 1361 1360 1359 1357 1356 1355 1355 1354 1353 1353 1353 1353 1352 1351 1351 1351 1351 1351 1349 1348 1347 1348 1349 1350 1350 1350 1352 1353 1354 1356 1358 1360 1363 1365 1366 1367 1368 1369 1372 1373 1374 1375 1376 1377 1378 1378
1366 1366 1366 1366 1366 1366 1365 1365 1365 1365 1364 1364 1363 1362 1362 1361 1360 1359 1358 1356 1354 1353 1353 1352 1351 1350 1350 1350 1349 1349 1349 1348 1348 1348 1347 1345 1345 1345 1346 1346 1347 1348 1349 1349 1350 1352 1353 1355 1357 1359 1360 1361 1363 1364 1365 1367 1369 1370 1371 1372 1373 1374 1375
1363 1364 1364 1364 1364 1363 1363 1363 1362 1362 1361 1361 1360 1359 1359 1358 1357 1356 1355 1353 1351 1351 1350 1349 1348 1348 1347 1347 1346 1346 1346 1345 1344 1344 1343 1342 1342 1342 1342 1343 1344 1345 1346 1347 1348 1349 1350 1351 1353 1354 1356 1357 1358 1360 1362 1363 1365 1366 1368 1369 1370 1371 1371
1361 1361 1362 1361 1361 1361 1360 1360 1360 1359 1358 1358 1357 1356 1355 1354 1354 1352 1351 1350 1349 1348 1347 1346 1346 1345 1344 1344 1343 1343 1343 1342 1341 1341 1340 1340 1340 1340 1340 1340 1341 1341 1343 1344 1345 1346 1346 1347 1349 1351 1352 1353 1355 1357 1358 1360 1361 1362 1364 1365 1366 1367 1368
1359 1359 1359 1359 1358 1358 1357 1357 1357 1356 1355 1354 1353 1352 1352 1351 1350 1349 1348 1347 1346 1345 1345 1344 1343 1343 1342 1341 1340 1340 1339 1339 1338 1338 1338 1338 1338 1338 1338 1337 1338 1339 1340 1341 1342 1342 1343 1344 1345 1347 1349 1350 1352 1354 1355 1356 1357 1359 1360 1362 1362 1363 1363
1357 1357 1357 1356 1356 1355 1354 1354 1354 1353 1352 1351 1350 1349 1348 1347 1346 1346 1345 1344 1343 1342 1342 1341 1341 1340 1339 1338 1338 1337 1336 1336 1335 1335 1335 1335 1335 1335 1335 1335 1335 1336 1337 1338 1338 1339 1340 1341 1343 1345 1346 1347 1349 1350 1351 1352 1354 1355 1356 1357 1358 1358 1358
1355 1355 1355 1354 1353 1352 1351 1351 1351 1350 1349 1348 1347 1346 1345 1344 1343 1342 1342 1341 1340 1339 1339 1338 1338 1337 1337 1336 1336 1335 1334 1334 1333 1332 1332 1332 1333 1333 1333 1333 1333 1333 1334 1335 1336 1337 1338 1339 1341 1342 1343 1344 1345 1346 1347 1349 1350 1351 1352 1353 1354 1354 1355
1354 1353 1352 1351 1350 1350 1349 1348 1348 1347 1347 1345 1344 1344 1343 1341 1340 1339 1339 1338 1337 1337 1336 1336 1335 1335 1334 1334 1333 1332 1332 1331 1331 1330 1330 1329 1330 1330 1330 1331 1331 1331 1332 1333 1334 1335 1336 1337 1338 1339 1340 1341 1342 1342 1343 1345 1346 1347 1348 1349 1350 1351 1352
1352 1352 1350 1349 1348 1347 1346 1345 1345 1345 1344 1343 1343 1343 1341 1340 1339 1338 1337 1336 1335 1335 1334 1333 1333 1332 1332 1331 1330 1329 1329 1329 1329 1328 1328 1327 1328 1328 1328 1329 1329 1329 1330 1331 1331 1332 1333 1334 1336 1336 1337 1338 1338 1339 1340 1341 1342 1343 1345 1346 1347 1348 1348
1351 1350 1348 1347 1346 1345 1344 1343 1342 1342 1341 1341 1341 1340 1338 1338 1337 1336 1335 1334 1333 1333 1332 1331 1330 1330 1329 1329 1328 1327 1327 1327 1327 1327 1326 1326 1326 1326 1326 1326 1327 1327 1328 1328 1329 1330 1331 1332 1332 1333 1334 1335 1335 1336 1336 1337 1339 1340 1341 1342 1343 1344 1345
1348 1346 1345 1344 1343 1342 1342 1341 1340 1340 1339 1339 1338 1336 1335 1336 1335 1334 1333 1332 1332 1331 1330 1329 1329 1328 1328 1327 1327 1326 1326 1325 1325 1325 1325 1324 1324 1324 1324 1324 1325 1325 1325 1326 1326 1327 1328 1328 1329 1330 1331 1332 1332 1333 1333 1334 1335 1337 1338 1338 1339 1340 1341
1344 1342 1342 1342 1341 1340 1339 1339 1338 1337 1336 1335 1334 1333 1333 1333 1332 1331 1330 1330 1330 1329 1329 1328 1327 1327 1326 1326 1326 1325 1325 1324 1324 1324 1323 1323 1323 1323 1323 1323 1323 1323 1323 1323 1323 1324 1324 1325 1326 1326 1327 1328 1328 1329 1330 1331 1332 1333 1334 1335 1336 1337 1338
1341 1340 1340 1339 1339 1338 1337 1336 1335 1334 1333 1332 1331 1331 1331 1331 1329 1328 1328 1328 1328 1327 1327 1326 1326 1325 1325 1325 1324 1324 1324 1323 1323 1322 1322 1322 1322 1321 1321 1321 1321 1321 1321 1321 1321 1321 1321 1322 1322 1322 1323 1324 1324 1325 1326 1327 1328 1329 1330 1331 1332 1333 1334
1339 1339 1338 1337 1336 1336 1335 1334 1333 1332 1330 1329 1329 1329 1328 1328 1327 1326 1326 1326 1326 1326 1325 1325 1324 1324 1324 1324 1323 1323 1323 1322 1322 1321 1321 1320 1320 1320 1319 1319 1319 1319 1319 1319 1319 1319 1319 1319 1319 1319 1319 1319 1320 1321 1322 1323 1324 1325 1326 1327 1328 1329 1330
1337 1336 1336 1335 1334 1333 1332 1331 1330 1329 1328 1327 1327 1326 1326 1325 1325 1324 1324 1324 1324 1324 1323 1323 1323 1323 1323 1323 1322 1322 1322 1321 1321 1320 1320 1319 1319 1318 1318 1317 1317 1317 1316 1316 1316 1316 1316 1316 1316 1316 1316 1316 1316 1316 1317 1318 1319 1320 1322 1323 1324 1326 1327
1335 1334 1333 1333 1332 1331 1330 1329 1328 1327 1327 1326 1325 1324 1324 1324 1323 1323 1322 1322 1322 1322 1322 1321 1321 1321 1321 1321 1321 1321 1320 1320 1320 1319 1319 1318 1317 1317 1316 1315 1315 1314 1314 1314 1314 1313 1313 1313 1313 1313 1313 1313 1313 1313 1313 1314 1315 1316 1317 1319 1321 1322 1323